• In Österreich
  • Länderverzeichnis
  • Für 7 Tage
  • Wassertemperatur
  • Satellitenkarten
  • Wetterkarte
  • News
  • Widgets
  • user-avatar
    Anmelden

    Stündliche Wetter Obenoschi

    Heute, 16 Juli, Montag

    Zeit Temperatur Niederschläge Wind Luftdruck Luftfeuchtigkeit
    00:00 +19°C° 0 mm 1 m/S 746 mmHg 92%
    01:00 +19°C° 0 mm 1 m/S 746 mmHg 93%
    02:00 +18°C° 0 mm 1 m/S 746 mmHg 94%
    03:00 +18°C° 0 mm 2 m/S 746 mmHg 93%
    04:00 +18°C° 0 mm 2 m/S 746 mmHg 92%
    05:00 +18°C° 0 mm 2 m/S 747 mmHg 92%
    06:00 +20°C° 0 mm 2 m/S 747 mmHg 85%
    07:00 +23°C° 0 mm 2 m/S 747 mmHg 79%
    08:00 +25°C° 0 mm 2 m/S 747 mmHg 73%
    09:00 +26°C° 0,2 mm 3 m/S 747 mmHg 66%
    10:00 +27°C° 0,2 mm 3 m/S 747 mmHg 59%
    11:00 +28°C° 0,2 mm 4 m/S 747 mmHg 53%
    12:00 +29°C° 0 mm 4 m/S 746 mmHg 51%
    13:00 +29°C° 0 mm 4 m/S 746 mmHg 49%
    14:00 +30°C° 0 mm 4 m/S 746 mmHg 47%
    15:00 +29°C° 0 mm 4 m/S 746 mmHg 50%
    16:00 +29°C° 0 mm 3 m/S 746 mmHg 54%
    17:00 +28°C° 0 mm 3 m/S 746 mmHg 58%
    18:00 +26°C° 0 mm 3 m/S 746 mmHg 64%
    19:00 +25°C° 0 mm 2 m/S 746 mmHg 71%
    20:00 +23°C° 0 mm 2 m/S 746 mmHg 78%
    21:00 +21°C° 0 mm 2 m/S 746 mmHg 79%
    22:00 +20°C° 0 mm 2 m/S 746 mmHg 81%
    23:00 +20°C° 0 mm 2 m/S 746 mmHg 83%

    Morgen, 17 Juli, Dienstag

    Zeit Temperatur Niederschläge Wind Luftdruck Luftfeuchtigkeit
    00:00 +19°C° 0 mm 2 m/S 746 mmHg 84%
    01:00 +19°C° 0 mm 3 m/S 746 mmHg 86%
    02:00 +19°C° 0 mm 3 m/S 746 mmHg 88%
    03:00 +19°C° 0 mm 3 m/S 746 mmHg 86%
    04:00 +19°C° 0 mm 3 m/S 746 mmHg 85%
    05:00 +20°C° 0 mm 3 m/S 746 mmHg 84%
    06:00 +21°C° 0 mm 4 m/S 746 mmHg 78%
    07:00 +23°C° 0 mm 4 m/S 746 mmHg 72%
    08:00 +26°C° 0 mm 5 m/S 746 mmHg 66%
    09:00 +27°C° 0 mm 5 m/S 745 mmHg 62%
    10:00 +28°C° 0 mm 6 m/S 745 mmHg 58%
    11:00 +29°C° 0 mm 6 m/S 745 mmHg 54%
    12:00 +29°C° 0,1 mm 6 m/S 744 mmHg 54%
    13:00 +29°C° 0,1 mm 6 m/S 744 mmHg 54%
    14:00 +30°C° 0,1 mm 6 m/S 744 mmHg 54%
    15:00 +29°C° 0,1 mm 6 m/S 744 mmHg 57%
    16:00 +29°C° 0,1 mm 5 m/S 744 mmHg 60%
    17:00 +28°C° 0,1 mm 5 m/S 743 mmHg 64%
    18:00 +27°C° 0 mm 4 m/S 743 mmHg 68%
    19:00 +25°C° 0 mm 4 m/S 743 mmHg 73%
    20:00 +23°C° 0 mm 4 m/S 744 mmHg 78%
    21:00 +23°C° 0 mm 4 m/S 744 mmHg 79%
    22:00 +22°C° 0 mm 4 m/S 744 mmHg 80%
    23:00 +22°C° 0 mm 4 m/S 743 mmHg 82%

    übermorgen, 18 Juli, Mittwoch

    Zeit Temperatur Niederschläge Wind Luftdruck Luftfeuchtigkeit
    00:00 +21°C° 0 mm 4 m/S 744 mmHg 84%
    01:00 +21°C° 0 mm 4 m/S 744 mmHg 85%
    02:00 +21°C° 0 mm 4 m/S 744 mmHg 87%
    03:00 +20°C° 0 mm 4 m/S 744 mmHg 87%
    04:00 +20°C° 0 mm 4 m/S 744 mmHg 87%
    05:00 +20°C° 0 mm 4 m/S 744 mmHg 87%
    06:00 +21°C° 0 mm 5 m/S 744 mmHg 83%
    07:00 +22°C° 0 mm 5 m/S 744 mmHg 78%
    08:00 +25°C° 0 mm 5 m/S 744 mmHg 73%
    09:00 +26°C° 0 mm 5 m/S 744 mmHg 68%
    10:00 +27°C° 0 mm 6 m/S 744 mmHg 62%
    11:00 +28°C° 0 mm 6 m/S 743 mmHg 57%
    12:00 +28°C° 0,1 mm 6 m/S 743 mmHg 57%
    13:00 +29°C° 0,1 mm 6 m/S 743 mmHg 56%
    14:00 +29°C° 0,1 mm 6 m/S 743 mmHg 56%
    15:00 +28°C° 0,3 mm 5 m/S 743 mmHg 63%
    16:00 +27°C° 0,3 mm 5 m/S 743 mmHg 69%
    17:00 +26°C° 0,3 mm 4 m/S 743 mmHg 76%
    18:00 +23°C° 0,1 mm 4 m/S 744 mmHg 79%
    19:00 +22°C° 0,1 mm 4 m/S 744 mmHg 83%
    20:00 +21°C° 0,1 mm 4 m/S 744 mmHg 86%
    21:00 +20°C° 0 mm 3 m/S 744 mmHg 87%
    22:00 +20°C° 0 mm 3 m/S 744 mmHg 89%
    23:00 +19°C° 0 mm 3 m/S 744 mmHg 90%

    19 Juli, Donnerstag

    Zeit Temperatur Niederschläge Wind Luftdruck Luftfeuchtigkeit
    00:00 +19°C° 0 mm 3 m/S 744 mmHg 90%
    01:00 +18°C° 0 mm 3 m/S 743 mmHg 91%
    02:00 +18°C° 0 mm 3 m/S 743 mmHg 91%
    03:00 +18°C° 0,5 mm 3 m/S 743 mmHg 93%
    04:00 +18°C° 0,5 mm 3 m/S 743 mmHg 94%
    05:00 +18°C° 0,5 mm 3 m/S 743 mmHg 96%
    06:00 +18°C° 0,4 mm 3 m/S 743 mmHg 96%
    07:00 +18°C° 0,4 mm 3 m/S 744 mmHg 97%
    08:00 +19°C° 0,4 mm 4 m/S 744 mmHg 97%
    09:00 +19°C° 0,1 mm 3 m/S 744 mmHg 95%
    10:00 +20°C° 0,1 mm 3 m/S 744 mmHg 93%
    11:00 +21°C° 0,1 mm 3 m/S 744 mmHg 91%
    12:00 +22°C° 0,1 mm 3 m/S 744 mmHg 86%
    13:00 +24°C° 0,1 mm 3 m/S 744 mmHg 81%
    14:00 +25°C° 0,1 mm 3 m/S 744 mmHg 76%
    15:00 +25°C° 0,3 mm 3 m/S 744 mmHg 77%
    16:00 +25°C° 0,3 mm 3 m/S 744 mmHg 79%
    17:00 +25°C° 0,3 mm 3 m/S 744 mmHg 80%
    18:00 +24°C° 0,1 mm 3 m/S 744 mmHg 85%
    19:00 +23°C° 0,1 mm 2 m/S 744 mmHg 89%
    20:00 +21°C° 0,1 mm 2 m/S 744 mmHg 93%
    21:00 +21°C° 0,1 mm 2 m/S 744 mmHg 95%
    22:00 +20°C° 0,1 mm 2 m/S 744 mmHg 96%
    23:00 +19°C° 0,1 mm 2 m/S 744 mmHg 97%

    20 Juli, Freitag

    Zeit Temperatur Niederschläge Wind Luftdruck Luftfeuchtigkeit
    00:00 +19°C° 0 mm 2 m/S 744 mmHg 97%
    01:00 +19°C° 0 mm 2 m/S 744 mmHg 98%
    02:00 +18°C° 0 mm 2 m/S 744 mmHg 98%
    03:00 +19°C° 0 mm 2 m/S 745 mmHg 97%
    04:00 +19°C° 0 mm 2 m/S 745 mmHg 96%
    05:00 +19°C° 0 mm 2 m/S 745 mmHg 96%
    06:00 +21°C° 0,1 mm 2 m/S 745 mmHg 91%
    07:00 +23°C° 0,1 mm 2 m/S 745 mmHg 86%
    08:00 +24°C° 0,1 mm 2 m/S 745 mmHg 82%
    09:00 +25°C° 0,9 mm 3 m/S 745 mmHg 81%
    10:00 +26°C° 0,9 mm 3 m/S 745 mmHg 79%
    11:00 +27°C° 0,9 mm 3 m/S 745 mmHg 78%
    12:00 +27°C° 0,7 mm 3 m/S 745 mmHg 77%
    13:00 +27°C° 0,7 mm 3 m/S 744 mmHg 75%
    14:00 +28°C° 0,7 mm 3 m/S 744 mmHg 73%
    15:00 +27°C° 0,5 mm 3 m/S 744 mmHg 76%
    16:00 +27°C° 0,5 mm 3 m/S 744 mmHg 79%
    17:00 +26°C° 0,5 mm 2 m/S 744 mmHg 81%
    18:00 +25°C° 0,1 mm 2 m/S 744 mmHg 85%
    19:00 +24°C° 0,1 mm 2 m/S 744 mmHg 89%
    20:00 +23°C° 0,1 mm 2 m/S 744 mmHg 93%
    21:00 +23°C° 0,3 mm 2 m/S 744 mmHg 94%
    22:00 +21°C° 0,3 mm 2 m/S 744 mmHg 95%
    23:00 +20°C° 0,3 mm 2 m/S 744 mmHg 96%

    21 Juli, Samstag

    Zeit Temperatur Niederschläge Wind Luftdruck Luftfeuchtigkeit
    00:00 +20°C° 0,4 mm 2 m/S 744 mmHg 97%
    01:00 +20°C° 0,4 mm 2 m/S 744 mmHg 97%
    02:00 +20°C° 0,4 mm 2 m/S 744 mmHg 97%
    03:00 +20°C° 0,3 mm 2 m/S 744 mmHg 97%
    04:00 +21°C° 0,3 mm 2 m/S 744 mmHg 97%
    05:00 +21°C° 0,3 mm 3 m/S 744 mmHg 97%
    06:00 +22°C° 0,2 mm 3 m/S 744 mmHg 94%
    07:00 +24°C° 0,2 mm 3 m/S 744 mmHg 91%
    08:00 +25°C° 0,2 mm 3 m/S 744 mmHg 88%
    09:00 +26°C° 0,4 mm 3 m/S 744 mmHg 82%
    10:00 +28°C° 0,4 mm 3 m/S 744 mmHg 75%
    11:00 +29°C° 0,4 mm 3 m/S 744 mmHg 69%
    12:00 +29°C° 0,3 mm 3 m/S 744 mmHg 69%
    13:00 +30°C° 0,3 mm 3 m/S 744 mmHg 68%
    14:00 +30°C° 0,3 mm 3 m/S 744 mmHg 68%
    15:00 +30°C° 0,5 mm 3 m/S 744 mmHg 71%
    16:00 +29°C° 0,5 mm 3 m/S 744 mmHg 75%
    17:00 +28°C° 0,5 mm 3 m/S 744 mmHg 78%
    18:00 +27°C° 0,2 mm 2 m/S 744 mmHg 83%
    19:00 +26°C° 0,2 mm 2 m/S 744 mmHg 87%
    20:00 +25°C° 0,2 mm 2 m/S 744 mmHg 92%
    21:00 +24°C° 0,9 mm 2 m/S 744 mmHg 93%
    22:00 +23°C° 0,9 mm 2 m/S 744 mmHg 94%
    23:00 +21°C° 0,9 mm 2 m/S 745 mmHg 96%
    Mehr zeigen